Probability
0 0 0 0 0 0 0 0 0 0 0 0 0 0 0 0 0 0 0 0 0 0 0 0 1 1 1 0 1 1 1 2 4 4 3 4 4 3 2 1 0 1 1 0
0 0 0 0 0 0 0 0 0 0 0 0 0 0 0 0 0 0 0 0 0 0 0 0 0 0 0 0 1 2 1 2 3 3 3 3 3 3 1 0 1 2 2 1
0 0 0 0 0 0 0 0 0 0 0 0 0 0 0 0 0 0 0 0 0 0 0 0 0 0 0 0 1 2 1 2 3 3 3 3 2 2 1 0 1 2 2 1
0 0 0 0 0 0 0 0 0 0 0 0 0 0 0 0 0 0 0 0 0 0 0 0 0 0 0 0 1 1 1 1 3 3 3 3 2 1 0 1 1 1 1 0
0 0 0 0 0 0 0 0 0 0 0 0 0 0 0 0 0 0 0 0 0 0 0 0 0 0 1 1 0 0 0 1 2 3 3 3 2 1 0 1 1 1 0 0
0 0 0 0 0 0 0 0 0 0 0 0 0 0 0 0 0 0 0 0 0 0 0 0 0 0 1 2 1 1 0 1 2 3 2 1 1 0 0 0 0 0 0 0
0 0 0 0 0 0 0 0 0 0 0 0 0 0 0 0 0 0 0 0 0 0 0 0 0 0 1 2 3 2 1 1 2 2 1 0 0 0 0 0 0 0 0 0
0 0 0 0 0 0 0 0 0 0 0 0 0 0 0 0 0 0 0 0 0 0 0 0 0 0 1 2 2 2 1 0 1 1 1 0 0 0 0 0 0 0 0 0
0 0 0 0 0 0 0 0 0 0 0 0 0 0 0 0 0 0 0 0 0 0 0 0 0 0 0 1 1 1 0 0 0 0 0 0 0 0 0 0 0 0 0 0
0 0 0 0 0 0 0 0 0 0 0 0 0 0 0 0 0 0 0 0 0 0 0 0 0 0 0 0 0 0 0 0 0 0 0 0 0 0 0 0 0 0 0 0
0 0 0 0 0 0 0 0 0 0 0 0 0 0 0 0 0 0 0 0 0 0 0 0 0 0 0 0 0 0 0 0 0 0 0 0 0 0 0 0 0 0 0 0
0 0 0 0 0 0 0 0 0 0 0 0 0 0 0 0 0 0 0 0 0 0 0 0 0 0 0 0 0 0 0 0 0 0 0 0 0 0 0 0 0 0 0 0
0 0 0 0 0 0 0 0 0 0 0 0 0 0 0 0 0 0 0 0 0 0 0 0 0 0 0 0 0 0 0 0 0 0 0 0 0 0 0 0 0 0 0 0
0 0 0 0 0 0 0 0 0 0 0 0 0 0 0 0 0 0 0 0 0 0 0 0 0 0 0 0 0 0 0 0 0 0 0 0 0 0 0 0 0 0 0 0
0 0 0 0 0 0 0 0 0 0 0 0 0 0 0 0 0 0 0 0 0 0 0 0 0 0 0 0 0 0 0 0 0 0 0 0 0 0 0 0 0 0 0 0
0 0 0 0 0 0 0 0 0 0 0 0 0 0 0 0 0 0 0 0 0 0 0 0 0 0 0 0 0 0 0 0 0 0 0 0 0 0 0 0 0 0 0 0
0 0 0 0 0 0 0 0 0 0 0 0 0 0 0 0 0 0 0 0 0 0 0 0 0 0 0 0 0 0 0 0 0 0 0 0 0 0 0 0 0 0 0 0
0 0 0 0 0 0 0 0 0 0 0 0 0 0 0 0 0 0 0 0 0 0 0 0 0 0 0 0 0 0 0 0 0 0 0 0 0 0 0 0 0 1 2 2
0 0 0 0 0 0 0 0 0 0 0 0 0 0 0 0 0 0 0 0 0 0 0 0 0 0 0 0 0 0 0 0 0 0 0 0 0 0 0 0 0 2 3 3
0 0 0 0 0 0 0 0 0 0 0 0 0 0 0 0 0 0 0 0 0 0 0 0 0 0 0 0 0 0 0 0 0 0 0 0 0 0 0 0 1 2 3 4
0 0 0 0 0 0 0 0 0 0 0 0 0 0 0 0 0 0 0 0 0 0 0 0 0 0 0 0 0 0 0 0 0 0 0 0 0 0 0 0 1 2 3 3
0 0 0 0 0 0 0 0 0 0 0 0 0 0 0 0 0 0 0 0 0 0 0 0 0 0 0 0 0 0 0 0 0 0 0 0 0 0 0 0 1 3 3 3
0 0 0 0 0 0 0 0 0 0 0 0 0 0 0 0 0 0 0 0 0 0 0 0 0 0 0 0 0 0 0 0 0 0 0 0 0 0 0 0 1 2 2 1
0 0 0 0 0 0 0 0 0 0 0 0 0 0 0 0 0 0 0 0 0 0 0 0 0 0 0 0 0 0 0 0 0 0 0 0 0 0 0 0 1 1 1 0
0 0 0 0 0 0 0 0 0 0 0 0 0 0 0 0 0 0 0 0 0 0 0 0 0 0 0 0 0 0 0 0 0 0 0 0 0 0 0 0 0 0 0 0
0 0 0 0 0 0 0 0 0 0 0 0 0 0 0 0 0 0 0 0 0 0 0 0 0 0 0 0 0 0 0 0 0 0 0 0 0 0 0 0 0 0 0 0
0 0 0 0 0 0 0 0 0 0 0 0 0 0 0 0 0 0 0 0 0 0 0 0 0 0 0 0 0 0 0 0 0 0 0 0 0 0 0 0 0 0 0 0
Wind_Speed
8 5 6 9 10 11 13 12 12 10 9 7 5 4 4 3 3 2 2 2 2 2 2 1 1 1 2 2 2 2 2 3 3 3 4 4 4 4 3 3 4 4 4 4
8 6 7 10 11 12 12 12 12 11 10 5 4 4 4 4 4 4 3 3 3 3 3 3 2 2 2 2 2 2 2 3 3 3 3 3 3 4 4 4 4 4 4 4
8 5 7 11 11 12 11 10 10 11 8 4 5 5 5 4 4 5 4 4 4 4 3 3 2 2 2 2 2 3 2 3 3 3 3 3 3 3 4 4 4 4 5 4
6 6 11 3 1 4 8 9 8 7 5 5 5 4 4 4 4 4 4 4 4 3 3 2 2 2 2 2 3 3 3 2 3 3 3 3 3 3 3 4 4 4 4 4
6 9 9 5 3 4 7 8 6 6 5 4 2 3 5 4 4 4 3 3 3 3 2 2 2 2 3 3 2 3 3 3 3 3 3 3 3 3 3 3 3 4 4 4
7 8 8 2 2 2 5 7 3 4 4 3 5 6 3 2 2 2 2 2 2 2 2 2 2 2 3 2 2 2 3 3 4 3 4 4 4 3 3 3 3 3 3 3
10 9 7 1 3 5 7 2 2 3 4 5 5 4 1 1 2 2 2 2 2 2 2 1 1 2 3 2 2 2 2 3 3 3 3 4 3 3 2 3 3 3 2 3
7 9 6 4 5 5 3 3 1 2 3 4 3 1 1 2 2 2 2 2 2 2 2 1 1 2 2 2 2 1 1 2 2 2 2 2 3 2 2 3 3 3 3 2
6 4 2 3 3 2 3 4 3 3 3 3 3 3 2 2 2 3 3 3 2 2 2 1 1 1 2 2 1 1 1 1 1 1 2 2 3 3 2 2 2 2 2 2
7 6 4 4 4 4 4 4 4 3 3 4 4 3 3 3 2 2 3 3 3 3 2 1 1 1 2 2 1 1 1 1 0 1 1 2 2 2 2 2 3 3 3 3
9 7 5 5 5 4 4 4 3 3 3 3 4 4 3 3 3 3 3 3 3 3 3 2 1 1 1 1 1 2 1 1 1 1 1 2 1 1 2 2 2 3 3 3
7 5 6 5 3 4 4 4 3 3 3 3 4 4 4 3 3 3 3 3 3 3 3 2 2 1 1 1 1 2 1 1 1 1 1 1 1 1 1 1 1 2 3 3
8 6 7 7 6 6 5 5 5 4 4 4 3 3 3 3 3 3 3 4 4 4 3 3 2 1 1 1 1 2 1 1 1 1 1 1 2 2 1 1 1 1 2 3
8 7 8 7 6 5 5 5 5 5 4 4 3 3 3 3 3 4 4 4 4 4 4 3 3 2 1 1 2 2 2 1 1 1 1 2 2 2 2 2 2 2 1 1
8 9 9 7 6 5 5 4 5 4 4 4 3 3 4 4 4 4 3 3 4 4 4 4 3 2 2 2 2 2 2 1 1 1 2 2 2 2 2 2 2 2 2 2
6 6 6 6 6 5 5 5 5 5 4 4 3 3 3 4 4 3 3 3 4 5 4 4 3 2 2 2 2 2 2 1 2 2 2 2 2 2 2 2 2 3 3 3
6 5 5 6 5 5 5 5 5 4 4 4 4 3 3 3 3 3 3 4 4 4 4 4 3 2 2 3 3 2 2 2 3 3 3 3 3 3 3 3 3 3 3 3
7 7 6 6 5 5 5 5 4 4 4 4 4 3 4 5 5 4 4 4 4 3 3 3 3 3 3 3 3 3 2 2 3 3 3 3 3 3 3 3 4 4 3 2
5 5 5 5 5 5 5 4 4 4 4 4 4 5 5 5 5 4 4 4 4 4 3 2 3 4 4 3 3 3 3 3 3 3 3 3 4 4 4 4 4 4 4 3
2 2 3 3 3 4 4 4 4 4 4 4 5 5 5 5 5 5 5 4 4 3 2 2 3 4 4 4 4 3 3 4 4 4 4 4 4 4 4 4 5 5 5 4
1 2 2 2 2 3 3 4 4 4 4 4 5 6 5 5 5 5 5 4 4 3 2 3 3 3 3 3 5 4 4 4 4 4 4 4 5 5 5 5 5 5 5 5
1 2 2 2 3 3 3 3 4 4 4 4 5 5 5 5 5 5 5 4 3 3 3 3 3 3 3 4 4 4 5 5 5 5 5 5 5 5 6 6 6 6 5 5
2 3 3 3 3 3 3 3 4 4 4 5 5 5 5 5 4 4 4 4 3 4 4 3 3 4 5 5 4 5 5 5 5 5 5 5 6 6 6 7 6 6 6 6
3 4 4 3 3 4 4 4 4 3 4 4 5 5 5 4 4 4 4 3 4 4 4 4 5 6 6 5 5 5 5 5 5 6 6 6 6 6 6 6 6 6 6 7
4 4 4 4 4 4 4 4 4 4 4 3 4 4 4 4 4 3 3 4 4 5 5 5 6 7 6 5 5 5 5 5 5 5 5 6 6 6 6 6 6 6 6 7
5 4 4 5 5 4 4 3 3 3 3 3 3 3 3 3 3 3 3 4 5 5 5 4 5 6 5 5 5 6 6 5 6 5 6 5 6 6 6 6 8 7 6 6
5 5 4 4 4 4 4 4 4 4 4 3 3 3 3 3 3 3 4 4 4 4 4 4 4 4 4 5 5 5 5 5 5 5 5 5 5 5 5 7 6 6 6 6
Wind_Direction
259 264 247 245 238 226 235 248 260 269 270 271 254 249 244 240 239 243 226 213 203 208 215 222 230 231 226 214 206 200 200 210 213 214 204 206 205 209 215 218 224 221 225 223
244 235 243 251 246 238 240 247 254 266 269 271 249 239 233 232 230 238 237 222 216 216 218 226 227 232 228 221 213 208 213 220 208 209 203 207 209 209 211 216 221 216 223 229
247 230 249 248 240 232 230 232 244 256 267 242 235 231 234 240 232 233 236 230 225 223 219 227 234 237 241 235 219 211 215 226 210 211 208 206 207 207 205 212 215 218 222 228
256 238 242 244 90 236 235 240 244 258 267 245 247 247 245 242 239 239 234 229 228 230 229 229 231 234 231 227 220 216 215 221 222 215 216 215 211 214 215 215 211 219 222 227
240 249 259 240 205 210 230 245 239 244 247 234 230 237 227 218 239 248 239 233 229 228 228 225 227 229 224 217 214 216 226 228 227 223 223 223 220 225 224 220 217 221 223 224
234 246 251 241 123 198 233 242 204 224 225 206 204 239 227 175 213 230 230 223 218 213 215 216 218 218 218 214 222 235 237 237 233 226 227 231 232 231 228 225 226 226 225 227
236 247 259 47 128 189 227 288 134 216 218 208 230 283 8 169 198 208 205 211 206 203 206 214 207 213 223 226 247 262 253 238 232 227 232 235 238 237 235 226 222 225 233 240
226 237 242 121 168 215 305 6 301 249 237 236 249 271 228 207 208 206 205 210 205 197 198 204 216 224 230 248 266 264 241 238 235 230 229 236 232 233 239 235 227 227 236 249
238 258 35 166 220 284 311 295 296 278 258 233 230 233 237 228 220 217 214 214 214 203 199 200 227 249 253 270 269 244 207 222 245 248 230 231 226 223 234 237 241 242 243 254
249 249 248 244 250 261 274 284 291 283 256 231 233 234 235 232 229 226 222 213 210 202 201 214 234 246 261 274 252 209 191 200 250 275 275 248 237 231 236 241 245 251 253 262
252 257 258 241 238 248 267 280 282 270 249 238 238 234 234 227 221 222 223 218 213 208 206 215 222 233 264 265 249 233 209 202 244 267 278 278 265 263 256 261 275 272 269 267
252 259 262 266 259 261 266 266 256 254 257 246 239 239 237 234 230 225 224 220 211 207 208 214 217 210 226 251 239 231 229 233 256 271 269 273 273 264 38 288 323 301 313 304
273 285 281 279 273 261 262 263 260 256 252 252 247 242 239 235 232 229 224 220 214 209 209 206 203 202 212 233 232 228 237 254 248 260 274 280 275 274 279 246 215 246 272 287
259 264 260 254 259 260 261 262 262 260 250 243 245 241 234 231 226 224 225 225 217 207 203 197 196 205 221 230 230 234 231 222 243 259 274 278 278 272 274 284 290 295 270 257
256 255 258 263 262 255 250 245 247 248 242 238 232 228 227 226 223 225 226 222 212 203 197 195 196 212 228 232 234 236 238 242 239 260 269 272 278 275 272 276 284 293 299 298
269 258 247 242 243 240 239 239 242 244 239 234 227 223 224 224 223 222 219 216 212 208 205 205 210 220 233 234 233 233 224 215 242 252 256 259 263 268 271 275 281 286 287 296
248 245 241 236 236 238 241 244 245 244 238 233 228 219 216 215 218 220 217 219 221 217 212 212 218 226 235 239 237 237 234 214 217 236 245 251 255 258 262 266 270 277 281 299
250 254 251 245 241 242 244 244 241 238 238 236 230 219 217 217 220 220 216 214 215 216 221 224 223 227 233 239 239 238 234 235 233 238 244 250 257 258 261 267 271 275 280 277
249 251 250 245 240 238 241 243 244 241 238 228 222 223 224 226 228 225 218 218 223 228 228 224 223 230 234 233 238 231 231 235 239 243 246 250 252 255 258 263 268 272 277 275
240 237 237 236 233 237 239 240 242 242 240 232 226 226 226 227 226 221 217 221 232 243 237 234 234 236 234 223 223 230 230 235 239 242 244 248 253 259 263 267 269 272 272 269
239 232 226 237 249 252 246 241 238 238 236 229 229 231 231 227 224 222 223 227 231 238 235 222 233 235 232 226 221 231 233 239 243 247 248 250 255 259 263 266 268 269 268 268
257 254 260 263 260 259 254 247 241 237 233 230 232 236 234 228 224 226 230 238 238 221 233 235 236 232 229 230 233 236 237 239 242 246 251 253 255 257 260 264 267 268 267 268
280 276 276 272 268 268 263 253 245 240 236 236 235 235 235 232 226 226 231 231 234 225 235 239 245 237 233 235 240 241 243 244 246 248 251 253 256 257 260 263 265 266 266 267
287 284 282 279 272 263 261 262 256 251 247 247 246 244 240 235 231 231 239 223 221 227 241 245 244 243 240 244 246 247 248 250 253 256 257 256 257 258 259 261 263 263 263 264
279 278 274 266 262 261 264 265 262 256 250 248 252 248 241 238 240 235 232 234 227 232 244 244 246 246 243 247 246 248 249 251 256 261 261 260 259 259 260 261 261 263 265 264
272 271 269 264 265 266 264 260 258 257 255 255 253 250 245 241 239 238 237 237 242 246 250 249 243 239 241 245 248 251 252 252 250 251 257 261 264 265 264 264 266 265 265 265
268 269 269 269 265 260 260 260 260 260 256 253 259 259 253 247 243 241 242 244 244 244 245 247 246 243 243 244 246 251 255 257 256 256 259 261 265 267 268 270 269 267 266 263